Regional Weather Roundup
Issued by NWS

Home | Current Version | Previous Version | Graphics & Text | Print | Product List | Glossary On
Versions: 1 2 3 4 5 6 7 8 9 10 11 12 13 14 15 16 17 18 19 20 21 22 23 24 25 26 27 28 29 30 31 32 33 34 35 36 37 38 39 40 41 42 43 44 45 46 47 48 49 50
000
ASUS45 KTFX 191719
RWRMT
MONTANA HOURLY WEATHER ROUNDUP
NATIONAL WEATHER SERVICE GREAT FALLS MT
1119 AM MDT FRI SEP 19 2014

NOTE: "FAIR" INDICATES FEW OR NO CLOUDS BELOW 12000 FEET WITH NO
SIGNIFICANT WEATHER AND/OR OBSTRUCTIONS TO VISIBILITY.

* THESE STATIONS ARE NOT UNDER NWS QUALITY CONTROL. THEY DO NOT
   REPORT WEATHER SUCH AS PRECIPITATION OR FOG.

MTZ001>007-043-191800-
WEST OF THE DIVIDE
CITY           SKY/WX    TMP DP  RH WIND       PRES   REMARKS
KALISPELL      CLOUDY    70  48  46 SW14      29.98R
MISSOULA       PTSUNNY   66  46  49 W9        30.05R
BUTTE          PTSUNNY   63  41  45 NW10      30.10R
MULLAN PASS    CLOUDY    46  45  96 VRB6      30.13R
* ESSEX        N/A       55  54  96 N/A        N/A
* LINCOLN      N/A       60  44  56 SW5G14     N/A
* LOOKOUT PASS N/A       53  46  77 SE8        N/A
* POLSON       N/A       62  47  58 S2         N/A
* RONAN APT    PTSUNNY   64  46  52 SW13G21    N/A
* SEELEY LAKE  N/A       59  44  58 W5G10      N/A
* THOMP F APT  SUNNY     61  52  72 S3         N/A
$$

MTZ008-052>055-191800-
SOUTHWEST MONTANA
CITY           SKY/WX    TMP DP  RH WIND       PRES   REMARKS
BOZEMAN        PTSUNNY   66  46  49 NW9       30.04R
DILLON         SUNNY     66  41  40 W16       30.08S
W YELLOWSTONE  SUNNY     54  52  93 W5        30.14F
* THREE FORKS  PTSUNNY   70  70 100 W9         N/A
* BOULDER HILL N/A       56  39  53 SW14       N/A
* MONIDA PASS  N/A       56  42  60 W4G9       N/A
* RAYNOLDS PAS N/A       56  37  49 S4G9       N/A
* WHITEHALL    N/A       65  46  50 W9G17      N/A
* WISE RIVER   N/A       61  41  48 NW12G17    N/A
$$

MTZ009>010-012-014-046-048-049-054-191800-
EAST SLOPES AND CENTRAL MONTANA
CITY           SKY/WX    TMP DP  RH WIND       PRES   REMARKS
CUT BANK       PTCLDY    70  45  41 W22G31    29.87R
GREAT FALLS    CLOUDY    66  46  49 SW14      29.91R
HELENA         CLOUDY    66  45  47 W13       30.02R
MALMSTROM AFB  CLOUDY    66  46  49 W15G22    29.92R
* CONRAD       PTSUNNY   70  48  46 SW23G28    N/A
* EAST GLACIER N/A       61  44  54 W21G29     N/A
* MONARCH      N/A       59  40  50 W16        N/A
* PENDROY      N/A       67  48  51 NW11G16    N/A
* ROGERS PASS  N/A       56  42  60 SE12G22    N/A
* SAINT MARY   N/A       61  46  58 SW9G19     N/A
* SWEET GRASS  N/A       66  41  40 W21G27     N/A
* WHITE SULPH  N/A       60  45  58 W2G9       N/A
$$

MTZ011-013-016-021-035-040-045-047-050-051-191800-
NORTH CENTRAL MONTANA
CITY           SKY/WX    TMP DP  RH WIND       PRES   REMARKS
HAVRE          PTSUNNY   73  46  38 W20       29.79S
LEWISTOWN      CLOUDY    66  45  47 W17G24    29.92R
* CHINOOK      PTSUNNY   72  48  43 W14G24    29.78R
* CHESTER      N/A       67  43  42 NW15G23    N/A
* DENTON       N/A       68  47  47 W26G35     N/A
* GEYSER       N/A       67  48  51 W23G29     N/A
* JUDITH GAP   N/A       63  46  54 W13G21     N/A
* LOMA         N/A       71  46  41 W17G24     N/A
$$

MTZ017>020-022>027-061-062-191800-
NORTHEAST MONTANA
CITY           SKY/WX    TMP DP  RH WIND       PRES   REMARKS
GLASGOW        PTCLDY    72  48  43 NW16      29.74R
GLENDIVE       SUNNY     73  48  41 W18G25    29.77R
JORDAN         CLOUDY    70  46  42 W22G28    29.80R
SIDNEY         SUNNY    N/A N/A N/A W18G26    29.69F
WOLF POINT     PTCLDY    73  50  44 W17G28    29.71R
* BEAVER HILL  N/A       73  50  44 SW16       N/A
* CIRCLE       N/A       73  50  44 SW11G20    N/A
* LINDSAY DVD  N/A       70  48  46 W17G22     N/A
* NAVAJO       N/A       66  51  59 NW20G26    N/A
$$

MTZ028>042-056>058-191800-
SOUTHCENTRAL AND SOUTHEAST MONTANA
CITY           SKY/WX    TMP DP  RH WIND       PRES   REMARKS
BAKER          PTCLDY    73  46  38 NW21G26   29.81R
BILLINGS       PTCLDY    70  52  53 W12       29.91S
LIVINGSTON     PTCLDY    70  45  41 W24G29    29.99R
MILES CITY     CLOUDY    72  48  43 W15       29.81R
* LAUREL APT   SUNNY     72  48  43 SW6        N/A
* ROUNDUP APT  PTSUNNY   70  43  38 W20G29     N/A
* HYSHAM       N/A       70  48  46 S4         N/A
* LAME DEER    N/A       68  50  53 W11G16     N/A
* REED POINT   N/A       71  46  41 W13G21     N/A
* ROSCOE HILL  N/A       70  32  25 SW7G16     N/A
$$

REGIONAL REPORTS...DAKOTAS
CITY           SKY/WX    TMP DP  RH WIND       PRES   REMARKS
WILLISTON      PTCLDY    77  46  33 W26G36    29.63S
DICKINSON      SUNNY     75  48  39 W20       29.71R
BEACH          N/A       72  48  43 W17G25    29.77R
CROSBY         SUNNY     72  48  43 W18G25    29.61S
TIOGA          SUNNY     73  46  38 W25G32    29.65S
WATFORD CITY   HAZE      77  46  33 W24G31    29.64S
BISMARCK       PTCLDY    77  57  50 W9G21     29.64S
GRAND FORKS    LGT RAIN  66  63  90 S7        29.57R
FARGO          LGT RAIN  66  61  84 S15       29.60F
BUFFALO SD     PTCLDY    73  52  48 W21       29.75S
RAPID CITY     CLOUDY    81  52  37 NW10      29.84R
$$

REGIONAL REPORTS...WYOMING/IDAHO/WASHINGTON
CITY           SKY/WX    TMP DP  RH WIND       PRES   REMARKS
GILLETTE       PTCLDY    73  50  44 N15       29.92F
SHERIDAN       SUNNY     73  54  51 N7        29.92R
CODY           SUNNY    N/A N/A N/A N/A        N/A
YELLOWSTONE LA SUNNY     55  46  72 VRB6      30.22R
SALMON         PTCLDY    61  45  56 CALM      30.08F
MULLAN PASS    CLOUDY    46  45  96 VRB6      30.13S
SAND POINT     PTSUNNY   63  50  63 SW7       30.04R
SPOKANE        SUNNY     64  50  61 SW9       30.05R
$$

REGIONAL REPORTS...ALBERTA
CITY           SKY/WX    TMP DP  RH WIND       PRES   REMARKS
CALGARY        SUNNY     64  46  52 SW9       29.79R
LETHBRIDGE     SUNNY     70  45  41 W29G37    29.81S
MEDICINE HAT   SUNNY     64  54  70 SW9       29.78R
EDMONTON       PTSUNNY   63  54  73 W6        29.71R
WATERTON GATE  N/A       64  43  47 SW22G31    N/A
CARDSTON       N/A       66  45  47 W16G24     N/A
MILK RIVER     N/A       70  43  38 W15G21     N/A
$$

REGIONAL REPORTS...SASKATCHEWAN
CITY           SKY/WX    TMP DP  RH WIND       PRES   REMARKS
SWIFT CURRENT  SUNNY     63  52  68 NW14      29.71R
MOOSE JAW      PTSUNNY   61  55  81 NW12      29.68R
REGINA         PTSUNNY   63  55  75 NW9       29.65R
VAL MARIE      N/A       64  52  65 N8         N/A
ASSINIBOIA     N/A       61  54  78 NW10       N/A
CORONACH       N/A       66  54  65 NW17       N/A

$$



USA.gov is the U.S. government's official web portal to all federal, state and local government web resources and services.